Notices

What's New in latest Release from April 7th, 2021:

- Updated Glossary, including Speed of Maximum Gust, and Total Hourly Precipitation

- Updated national and regional climate services offices contacts and prices information

- Addition of station inventory lists for 1981-2010, 1971-2000, and 1961-1990 Normals.

If you haven't already, please take our survey and provide feedback about our website: https://eccc.sondage-survey.ca/f/LanguageSelection.aspx?s=442ca660-fcf1-47c0-95a9-59707d6fd709

Hourly Data Report for November 16, 2019

SHEARWATER RCS
NOVA SCOTIA
Current Station Operator: ECCC - MSC

44°37'47.000" N
63°30'48.000" W
24.00 m
8205092
71264
AAW

Download Data

Hourly Data (November 2019)
Hourly Data Report for November 16, 2019
TIME
LST
Temp Definition
°C
Dew Point Definition
°C
Rel Hum Definition
%
Precip. Amount Definition
mm

Wind Dir Definition
10's deg

Wind Spd Definition
km/h
Visibility Definition
km
Stn Press Definition
kPa
Hmdx Definition


Wind Chill Definition


Weather Definition


00:00 6.0 3.2 83 0.0 25 12   101.00     LegendNANA
01:00 5.2 2.8 84 0.0 25 8   100.98     LegendNANA
02:00 5.7 2.6 80 0.0 26 12   100.98     LegendNANA
03:00 2.9 -1.6 72 0.0 32 31   101.09     LegendNANA
04:00 0.9 -6.0 60 0.0 30 28   101.20     LegendNANA
05:00 -0.5 -9.6 50 0.0 31 28   101.30   -7 LegendNANA
06:00 -2.1 -10.6 52 0.0 31 29   101.44   -9 LegendNANA
07:00 -3.7 -9.7 63 0.0 32 28   101.63   -11 LegendNANA
08:00 -4.0 -10.5 60 0.0 31 27   101.75   -11 LegendNANA
09:00 -3.4 -12.4 50 0.0 30 24   101.77   -10 LegendNANA
10:00 -2.1 -11.0 51 0.0 31 26   101.81   -9 LegendNANA
11:00 -1.6 -10.7 50 0.0 30 27   101.84   -8 LegendNANA
12:00 -1.5 -11.0 48 0.0 31 29   101.84   -8 LegendNANA
13:00 -1.0 -11.5 45 0.0 31 25   101.80   -7 LegendNANA
14:00 -1.2 -12.7 41 0.0 31 29   101.83   -8 LegendNANA
15:00 -1.5 -12.4 43 0.0 31 31   101.88   -9 LegendNANA
16:00 -2.2 -12.3 46 0.0 32 24   101.98   -9 LegendNANA
17:00 -2.6 -12.1 48 0.0 32 21   102.13   -9 LegendNANA
18:00 -2.9 -11.9 50 0.0 32 13   102.26   -8 LegendNANA
19:00 -2.7 -11.1 52 0.0 29 14   102.40   -8 LegendNANA
20:00 -3.1 -11.1 54 0.0 31 13   102.50   -8 LegendNANA
21:00 -3.2 -10.5 57 0.0 31 13   102.57   -8 LegendNANA
22:00 -3.1 -10.8 55 0.0 32 18   102.59   -9 LegendNANA
23:00 -3.4 -11.0 56 0.0 31 13   102.65   -8 LegendNANA

Notes on Data Quality.

Legend

  • E = Estimated
  • M = Missing
  • NA = Not Available*
  • [empty] = Indicates an unobserved value
Date modified: